EXPRESS-AMU1 (41191 NORAD) Tracking and Keplerian Element Data

This shows tracking and keplerian element data for the satellite.

Feedback or suggestion? Click here.




ElementValue
Catalog41191
NameEXPRESS-AMU1
Epoch Orbit2121
Epoch Day269.21021448
Epoch Year2021
RAAN158.5208
Inclination0.0201
Eccentricity0.0002649
Argument of Perigee39.6055
Mean Anonmoly278.8751
Mean Motion1.00273342
Decay Rate1.53E-06
L11 41191U 15082A 21269.21021448 .00000153 00000-0 00000+0 0 9992
L22 41191 0.0201 158.5208 0002649 39.6055 278.8751 1.00273342 21215

Live tracking and technical data element details for EXPRESS-AMU1 (NORAD 41191). EXPRESS-AMU1 can be tracked NOW for your location showing map with azimuth and elevation plus other details from your city location.

Track the satellite on the map from your city or location and see movement details for azimuth, elevation, latitude, longitude, range, height, and movement on the map or in text.







IsCatalogInMostPopularTable: catalog: 41191, numindb: 533
Update: records affected: 1



GetName: 41191 EXPRESS-AMU1

Hit Count: updated at: Mon, 27 Sep 2021 01:56:48 GMT